Vorticity
9 5 6 6 6 7 7 13 11 13 15 15 17 14 17 20 19 17 19 16 12 9 11 7 9 14 13 9 8 11 10 7 9 6 -0 -3 16 -0 2 1 -4 -2 -1
9 7 6 4 4 4 3 5 5 6 5 6 7 10 10 11 12 11 12 14 15 11 12 14 9 8 8 6 6 4 -1 11 10 2 11 27 8 -1 -3 14 -5 -7 19
2 9 9 4 5 7 6 4 3 4 3 4 4 3 5 7 5 6 7 8 8 6 8 9 2 6 16 12 7 12 9 18 -11 -1 2 13 3 11 12 -2 -6 16 2
0 -1 9 9 6 7 10 7 4 4 3 4 4 5 4 3 5 9 8 6 7 7 8 11 9 0 4 16 -0 11 19 24 37 3 13 11 22 6 0 -3 3 10 4
24 7 2 4 8 8 7 5 7 8 6 4 4 5 6 6 6 7 5 5 4 7 6 10 7 6 6 -3 14 -1 7 8 8 25 7 10 6 -5 11 -3 24 11 18
15 23 9 8 4 4 2 4 5 5 4 6 5 3 4 5 8 8 8 7 10 9 5 6 9 9 3 6 3 4 12 -5 -1 -1 26 -5 -3 3 -1 19 20 37 4
11 18 17 19 6 6 3 5 6 7 11 10 6 4 4 10 8 9 12 6 6 9 10 12 11 10 10 9 10 7 8 14 4 -4 10 -4 3 14 10 38 33 -1 -4
1 11 9 6 16 22 9 4 5 10 9 11 13 9 10 15 8 6 4 6 9 10 13 11 12 12 17 18 19 15 19 22 17 33 18 -10 34 -3 -1 37 14 -7 -0
7 -1 10 10 8 7 19 16 20 7 4 8 11 13 17 7 2 3 5 5 5 8 7 11 12 10 10 10 15 8 11 28 20 14 10 -2 24 10 32 7 -10 19 7
8 12 14 -4 16 12 5 17 12 5 6 1 5 9 9 1 0 5 8 7 6 8 7 7 9 9 9 5 7 13 10 8 5 46 17 2 37 27 8 4 11 9 10
12 12 19 11 5 6 9 7 12 13 11 7 5 10 9 3 5 9 10 7 6 6 6 8 8 10 11 13 2 5 11 -9 35 17 44 34 5 5 8 9 8 7 10
9 8 14 20 10 5 6 16 28 8 14 7 6 4 6 23 19 16 9 5 6 8 8 14 9 -3 5 11 16 14 34 25 26 22 8 2 10 13 8 5 2 3 6
19 14 8 19 23 8 -0 3 3 16 23 15 15 18 10 5 29 3 4 23 17 16 12 -12 25 -10 16 15 11 40 32 19 6 4 11 10 8 6 0 5 11 13 13
18 15 18 5 25 20 10 10 5 3 21 17 13 8 26 15 16 16 20 19 -7 -13 29 26 18 38 45 34 19 10 9 11 8 7 3 2 8 11 12 13 12 12 12
28 21 24 13 26 28 19 15 13 16 13 15 -1 36 1 10 44 13 18 35 10 58 34 23 19 11 13 11 5 6 3 1 1 6 7 11 13 13 12 9 7 7 9
64 22 16 20 22 18 28 23 16 -0 -8 4 28 9 25 25 20 44 35 21 37 12 13 13 8 4 -1 0 5 9 10 11 12 15 14 9 6 7 9 12 13 13 14
19 41 24 34 17 23 26 20 11 8 19 -5 49 57 43 63 31 7 16 0 5 7 7 12 10 9 9 10 10 12 12 10 9 9 9 10 11 12 14 15 15 14 14
22 19 31 43 36 45 49 50 37 65 20 24 -23 -7 1 2 6 9 8 8 6 8 9 9 10 10 9 8 7 8 9 9 11 12 12 13 13 11 13 13 15 16 16
20 10 10 10 13 12 9 9 9 5 14 9 4 9 5 7 5 7 10 7 8 9 9 9 8 8 9 11 11 11 10 12 12 11 11 12 14 14 15 15 15 15 17
14 18 11 10 8 6 11 9 7 8 5 7 9 8 9 11 11 7 5 5 6 7 9 10 9 10 10 11 13 11 12 11 12 13 13 13 13 13 14 15 17 18 18
10 9 10 12 11 11 10 7 9 9 9 7 5 5 5 9 10 8 7 11 10 11 11 11 13 14 13 11 10 11 11 12 13 13 14 15 16 15 16 17 16 16 16
10 9 8 6 5 5 7 8 7 6 6 8 9 10 9 6 7 9 12 13 13 13 14 13 11 10 10 11 11 12 12 13 13 15 16 16 15 14 14 14 15 14 14
7 7 7 7 8 8 8 7 7 8 9 9 8 8 8 10 12 11 11 11 12 11 10 10 11 12 11 11 12 13 15 16 17 15 14 13 13 13 14 14 14 13 14
8 8 8 9 9 9 10 11 11 12 12 13 14 16 15 14 12 12 11 11 12 12 11 12 12 12 13 13 14 15 14 14 13 13 13 13 13 14 13 13 12 13 14
11 11 12 12 13 13 13 14 15 14 13 12 11 10 9 9 10 11 11 11 10 10 11 12 12 12 13 14 14 13 14 13 13 13 13 13 13 12 11 12 13 14 12
13 13 13 14 15 14 13 11 10 9 9 9 10 10 10 11 11 11 11 11 12 11 11 11 11 11 12 14 13 14 14 14 14 13 12 12 11 11 12 14 14 11 12
Height
3045 3047 3049 3050 3051 3052 3054 3056 3057 3059 3061 3062 3065 3068 3072 3076 3079 3080 3082 3085 3086 3088 3090 3091 3092 3094 3095 3095 3096 3096 3095 3095 3089 3090 3091 3090 3087 3085 3083 3081 3079 3079 3078
3041 3043 3045 3047 3049 3050 3051 3053 3054 3056 3058 3060 3061 3063 3066 3068 3070 3072 3074 3076 3077 3079 3081 3082 3083 3085 3084 3085 3085 3084 3083 3084 3081 3078 3079 3080 3079 3077 3074 3073 3070 3069 3068
3036 3038 3040 3041 3043 3046 3048 3050 3050 3052 3053 3055 3056 3057 3060 3061 3063 3064 3066 3067 3069 3070 3072 3072 3074 3075 3075 3075 3074 3072 3069 3068 3068 3068 3067 3068 3067 3066 3064 3063 3060 3059 3058
3032 3033 3035 3037 3039 3041 3043 3045 3045 3047 3047 3048 3049 3051 3052 3054 3056 3057 3058 3060 3061 3062 3063 3064 3065 3065 3065 3065 3063 3061 3059 3057 3057 3056 3054 3054 3053 3055 3053 3051 3049 3049 3048
3025 3027 3029 3031 3033 3034 3036 3037 3038 3039 3040 3041 3042 3043 3044 3046 3047 3048 3049 3050 3051 3052 3053 3053 3053 3055 3055 3054 3053 3051 3050 3048 3046 3044 3043 3041 3041 3040 3040 3038 3037 3035 3036
3018 3020 3022 3023 3024 3026 3028 3028 3029 3032 3032 3033 3034 3034 3035 3036 3038 3040 3041 3041 3042 3042 3042 3042 3042 3043 3043 3043 3042 3041 3039 3034 3035 3034 3026 3029 3028 3026 3025 3025 3020 3020 3019
3012 3013 3014 3015 3015 3018 3019 3019 3021 3022 3023 3024 3024 3025 3026 3027 3030 3031 3032 3030 3030 3030 3030 3030 3030 3031 3031 3031 3031 3029 3026 3024 3023 3022 3019 3018 3014 3010 3009 3006 3008 3007 3008
3005 3005 3005 3006 3006 3008 3008 3009 3012 3013 3013 3013 3014 3015 3016 3018 3019 3021 3021 3020 3019 3019 3018 3017 3017 3018 3018 3019 3018 3016 3014 3012 3011 3009 3008 3006 3003 3000 3000 2997 2995 2995 2995
2997 2996 2997 2995 2995 2996 2996 2999 3002 3002 3003 3004 3004 3004 3004 3006 3008 3009 3009 3009 3008 3007 3007 3005 3005 3004 3005 3005 3007 3004 3002 2999 2998 2995 2991 2991 2990 2985 2985 2984 2982 2982 2981
2985 2985 2984 2985 2983 2984 2985 2986 2989 2988 2990 2990 2992 2992 2993 2994 2996 2997 2998 2998 2997 2997 2996 2993 2992 2992 2993 2993 2993 2991 2988 2986 2984 2980 2973 2975 2974 2972 2973 2972 2970 2969 2967
2974 2974 2975 2977 2973 2972 2973 2974 2974 2974 2977 2979 2980 2980 2981 2981 2981 2984 2985 2984 2984 2982 2981 2980 2981 2982 2980 2979 2979 2976 2972 2971 2968 2961 2964 2963 2963 2963 2963 2960 2957 2954 2951
2960 2961 2962 2963 2964 2963 2962 2963 2962 2962 2964 2965 2966 2967 2969 2970 2970 2972 2972 2972 2972 2970 2967 2967 2968 2966 2967 2966 2963 2962 2957 2953 2955 2955 2953 2952 2951 2950 2949 2947 2946 2943 2939
2945 2946 2947 2948 2948 2949 2951 2950 2950 2951 2952 2952 2953 2954 2954 2954 2955 2958 2959 2957 2958 2955 2952 2949 2951 2949 2950 2948 2948 2945 2945 2947 2947 2946 2944 2942 2940 2939 2937 2935 2933 2929 2925
2930 2932 2932 2932 2933 2934 2935 2938 2939 2941 2940 2941 2943 2943 2941 2942 2942 2942 2944 2941 2939 2938 2929 2934 2933 2935 2935 2935 2932 2934 2935 2937 2938 2936 2935 2933 2930 2927 2924 2921 2918 2915 2911
2918 2917 2917 2917 2918 2919 2920 2922 2926 2927 2929 2930 2929 2927 2928 2929 2930 2920 2924 2920 2917 2924 2919 2920 2919 2925 2927 2927 2930 2928 2929 2928 2928 2926 2924 2922 2917 2914 2911 2908 2904 2900 2896
2910 2906 2906 2905 2905 2907 2909 2909 2911 2912 2914 2917 2918 2915 2913 2912 2913 2901 2909 2913 2909 2913 2917 2912 2916 2919 2923 2923 2923 2922 2922 2919 2917 2914 2912 2909 2906 2903 2898 2894 2890 2885 2880
2906 2900 2898 2896 2895 2898 2898 2900 2901 2901 2899 2898 2903 2894 2899 2897 2902 2907 2904 2907 2913 2913 2910 2910 2911 2912 2913 2913 2912 2911 2910 2907 2904 2903 2900 2897 2893 2888 2884 2879 2874 2870 2865
2905 2900 2897 2895 2896 2898 2899 2896 2893 2889 2892 2895 2898 2902 2898 2895 2901 2898 2899 2900 2904 2902 2900 2903 2904 2903 2902 2903 2901 2900 2899 2896 2893 2890 2887 2883 2879 2874 2870 2865 2861 2857 2853
2904 2904 2901 2898 2896 2898 2898 2896 2897 2894 2892 2897 2894 2892 2896 2891 2897 2900 2898 2898 2895 2894 2894 2896 2897 2895 2893 2893 2891 2889 2887 2885 2882 2878 2875 2871 2867 2862 2858 2854 2850 2845 2841
2904 2903 2903 2900 2899 2899 2895 2903 2899 2894 2898 2898 2896 2897 2893 2892 2891 2895 2893 2889 2890 2889 2889 2890 2889 2886 2884 2883 2881 2879 2876 2875 2872 2868 2865 2861 2857 2853 2849 2845 2840 2835 2832
2905 2903 2903 2902 2900 2899 2900 2897 2892 2892 2895 2895 2892 2890 2889 2889 2890 2890 2886 2884 2884 2883 2883 2882 2880 2878 2876 2874 2872 2869 2867 2865 2862 2860 2856 2853 2849 2845 2841 2837 2833 2828 2824
2905 2904 2903 2902 2900 2898 2897 2895 2893 2894 2892 2891 2887 2886 2886 2885 2883 2882 2880 2879 2878 2878 2878 2874 2871 2870 2868 2866 2863 2861 2859 2857 2854 2851 2848 2845 2842 2838 2833 2830 2827 2823 2820
2904 2902 2901 2899 2897 2895 2894 2892 2890 2888 2885 2884 2881 2881 2880 2878 2878 2877 2875 2875 2873 2873 2871 2869 2866 2865 2862 2859 2856 2854 2851 2848 2846 2843 2840 2838 2835 2831 2828 2824 2822 2819 2815
2901 2899 2897 2895 2893 2891 2889 2887 2885 2883 2882 2880 2879 2878 2876 2875 2873 2871 2871 2870 2869 2867 2865 2863 2861 2859 2855 2852 2849 2846 2843 2841 2838 2836 2833 2831 2829 2826 2823 2820 2817 2813 2810
2897 2895 2893 2890 2887 2885 2884 2882 2880 2878 2877 2875 2874 2873 2871 2870 2868 2866 2866 2865 2863 2860 2858 2855 2853 2850 2848 2844 2842 2839 2836 2834 2832 2830 2828 2826 2824 2821 2817 2815 2812 2810 2806
2893 2891 2888 2886 2884 2883 2881 2879 2877 2875 2874 2873 2872 2870 2867 2866 2864 2861 2860 2857 2855 2853 2851 2848 2846 2843 2840 2838 2835 2833 2830 2829 2827 2825 2822 2820 2818 2816 2813 2811 2808 2806 2804